Regional Weather Roundup
Issued by NWS Cleveland, OH

Home | Current Version | Previous Version | Text Only | Print | Product List | Glossary Off
Versions: 1 2 3 4 5 6 7 8 9 10 11 12 13 14 15 16 17 18 19 20 21 22 23 24 25 26 27 28 29 30 31 32 33 34 35 36 37 38 39 40 41 42 43 44 45 46 47 48 49 50

000
ASUS41 KCLE 060512
RWRCLE
OHIO REGIONAL WEATHER ROUNDUP
NATIONAL WEATHER SERVICE WILMINGTON, OH
1200 AM EST SAT FEB 06 2016

NOTE: "FAIR" INDICATES FEW OR NO CLOUDS BELOW 12,000 FEET WITH NO
SIGNIFICANT WEATHER AND/OR OBSTRUCTIONS TO VISIBILITY.

OHZ001>008-015>018-024>027-034-035-043-044-060600-
   NORTHWEST OHIO

CITY           SKY/WX    TMP DP  RH WIND       PRES   REMARKS
DEFIANCE       FAIR      30  24  78 CALM      30.30F
FINDLAY        FAIR      27  22  81 SW7       30.29S WCI  19
TOLEDO EXPRESS FAIR      27  22  81 W7        30.29R WCI  19
TOLEDO EXEC    FAIR      28  22  78 SW7       30.30S WCI  21
LIMA           MOCLDY    26  22  84 W6        30.30R WCI  19
$$

OHZ009>014-019>023-028>033-038-089-060600-
   NORTHEAST OHIO

CITY           SKY/WX    TMP DP  RH WIND       PRES   REMARKS
CLE-HOPKINS    CLOUDY    35  19  52 S9        30.30F WCI  28
CLE-LAKEFRONT  CLOUDY    37  20  50 S13       30.27F
CUY CO. ARPT   NOT AVBL
LORAIN-ELYRIA  CLOUDY    32  21  64 SW9       30.28F WCI  24
ASHTABULA      CLOUDY    30  20  66 S8        30.29F WCI  22
AKRON-CANTON   CLOUDY    32  19  58 S9        30.28F WCI  24
WOOSTER        CLOUDY    32  21  64 S8        30.29F WCI  25
MANSFIELD      CLOUDY    31  20  63 SW5       30.27S WCI  26
YOUNGSTOWN     CLOUDY    30  18  60 S7        30.29F WCI  23
$$

OHZ042-051>053-060>062-070>072-077>081-060600-
  SOUTHWEST OHIO

CITY           SKY/WX    TMP DP  RH WIND       PRES   REMARKS
CINC-COVINGTON FAIR      29  24  82 NW5       30.33R WCI  24
CINC-LUNKEN    FAIR      31  23  72 CALM      30.36R
HAMILTON       FAIR      27  24  89 CALM      30.35S
DAYTON         FAIR      28  25  88 CALM      30.31F
WRIGHT-PAT AFB FAIR      27  22  81 W1        30.31F
DAYTON GENERAL FAIR      29  22  75 CALM      30.31S
WILMINGTON     FAIR      31  19  61 W6        30.31R WCI  25
$$

OHZ036-037-039>041-045>050-054>059-063>069-073>076-082>088-060600-
  CENTRAL AND SOUTHEAST OHIO

CITY           SKY/WX    TMP DP  RH WIND       PRES   REMARKS
COLUMBUS       CLOUDY    35  16  45 S10       30.30F WCI  27
OSU AIRPORT    FAIR      32  21  64 SW6       30.30F WCI  26
BOLTON FIELD   FAIR      31  22  67 W6        30.31S WCI  26
RICKENBACK AFB CLOUDY    34  20  57 S12       30.30F WCI  25
NEWARK         CLOUDY    34  19  54 S7        30.30F WCI  28
MARION         MOCLDY    30  23  75 SW5       30.29F WCI  25
LANCASTER      CLOUDY    35  18  49 S8        30.32F WCI  29
ZANESVILLE     CLOUDY    34  18  52 S7        30.33F WCI  28
NEW PHILLY     CLOUDY    31  22  69 CALM      30.32F
$$



USA.gov is the U.S. government's official web portal to all federal, state and local government web resources and services.